{"data":{"norad_id":55649,"epoch":"2026-09-20T11:53:17.229984Z","epoch_age_seconds":103473,"freshness":"FRESH","line1":"1 55649U 23021X   26263.49533831  .00001643  00000+0  14547-3 0  9999","line2":"2 55649  69.9989  53.1898 0003043 265.0443  95.0368 14.98317548197973","mean_motion":14.98317548,"eccentricity":0.0003043,"inclination_deg":69.9989,"raan_deg":53.1898,"arg_perigee_deg":265.0443,"mean_anomaly_deg":95.0368,"bstar":0.00014547,"rev_number":19797,"period_min":96.107797837792,"perigee_km":569.97944257952,"apogee_km":574.20935340834,"semimajor_km":6950.2313979939,"source":"CELESTRAK","updated_at":"2026-09-21T09:00:33.284597Z"}}